Location: Ejido General Francisco Villa
(32.4929°N, 116.8486°W)
Time: 16:35:24
(UTC+00:00)

Daily predictions for brighter satellites

Satellite Brightness Start Highest point End
(mag) Time Altitude Azimuth Time Altitude Azimuth Time Altitude Azimuth
X-37B 0.7 12:01:47 10° WNW 12:04:32 41° SW 12:07:16 10° SE
Sich 1 3.2 12:01:28 10° S 12:05:48 77° E 12:10:07 10° N
PSLV R/B 4.3 12:05:13 10° NNE 12:09:22 54° E 12:13:28 10° S
FALCON 9 DEB 3.0 12:06:38 10° NW 12:09:51 58° SW 12:13:03 10° SSE
Cosmos 2227 Rocket 2.4 12:04:41 10° SW 12:10:14 56° WNW 12:15:49 10° N
Cosmos 1484 Rocket 2.9 12:07:17 10° N 12:11:11 59° WNW 12:15:00 10° SSW
Cosmos 2082 4.2 12:05:46 10° S 12:11:18 61° ESE 12:16:52 10° NNE
CZ-4C R/B 3.8 12:10:16 10° SSE 12:14:33 76° ENE 12:18:55 10° N
DELTA 2 DEB (DPAF) 4.4 12:10:23 10° S 12:14:36 46° W 12:18:50 10° NNW
Cosmos 2346 Rocket 4.5 12:08:38 10° SSW 12:14:37 65° W 12:20:40 10° N
CZ-2C R/B 3.7 12:11:35 10° NNW 12:15:06 22° WNW 12:18:35 10° WSW
